[[{"header":{"parameterUnit":"m.s-1","parameterCategory":1,"la1":30.2991,"la2":30.254,"lo1":-89.0895,"lo2":-89.0444,"dy":0.0017,"dx":0.0017,"nx":28,"ny":28,"refTime":"2024-05-01T09:00:00:Z","depth":0,"parameterNumber":2,"parameterNumberName":"U-component_of_WINDS"},"data":[0,0,0,0,0,0,0,0,0,0,0,0,0,0,0,0,0,0,0,0,0,0,0,0,0,0,0,0,0,0,0,0,0,0,0,0,0,0,0,0,0,0,0,0,0,0,0,0,0,0,0,0,0,0,0,0,0,0,-2.0915,-2.0916,0,-2.0996,-2.0997,-2.0998,-2.1022,-2.1022,-2.1021,-2.1021,-2.1103,-2.1106,-2.1108,0,0,0,0,0,0,0,0,0,0,0,0,0,-2.0783,-2.0786,-2.0915,-2.0916,-2.0917,-2.0996,-2.0997,-2.0998,-2.1022,-2.1022,-2.1021,-2.1021,-2.1103,-2.1106,-2.1109,0,0,0,0,0,0,0,0,0,0,0,0,0,-2.085,-2.0786,-2.0915,-2.0939,-2.0942,-2.0995,-2.0997,-2.0998,-2.1022,-2.1022,-2.1021,-2.1021,-2.1102,-2.1105,-2.1109,-2.1145,0,0,-2.1121,-2.1123,0,0,0,0,0,0,0,0,-2.0846,-2.0855,-2.0934,-2.0937,-2.0941,-2.0998,-2.0981,-2.1047,-2.1023,-2.0992,-2.1021,-2.102,-2.1069,-2.1075,-2.1092,-2.1149,-2.1152,-2.1121,-2.1124,-2.1125,-2.1126,0,0,0,0,0,0,0,-2.0841,-2.0851,-2.0947,-2.0935,-2.0939,-2.0946,-2.0955,-2.0993,-2.1033,-2.0994,-2.0996,-2.1006,-2.1071,-2.1088,-2.1094,-2.1153,-2.1121,-2.1125,-2.1127,-2.1128,-2.1245,-2.1245,0,0,0,0,0,0,-2.0833,-2.0847,-2.0944,-2.0949,-2.0891,-2.0949,-2.0959,-2.098,-2.1032,-2.104,-2.1006,-2.1006,-2.1082,-2.1089,-2.1097,-2.1142,-2.1125,-2.1129,-2.1131,-2.1244,-2.1245,-2.1246,0,0,0,0,0,0,-2.083,-2.0841,-2.0941,-2.0899,-2.0912,-2.0952,-2.0976,-2.0982,-2.1,-2.1041,-2.1048,-2.1017,-2.1082,-2.1092,-2.1133,-2.1146,-2.1131,-2.1134,-2.1243,-2.1244,-2.1245,-2.1233,0,0,0,0,0,0,-2.0826,-2.084,-2.0853,-2.0899,-2.0914,-2.0975,-2.0977,-2.0984,-2.1006,-2.1008,-2.1053,-2.106,-2.1082,-2.1127,-2.1137,-2.1151,-2.1137,-2.1242,-2.1244,-2.1245,-2.1233,-2.1234,-2.1235,0,0,0,0,0,-2.0821,-2.0847,-2.0854,-2.0866,-2.0932,-2.0976,-2.0985,-2.101,-2.1007,-2.1021,-2.1048,-2.1058,-2.1143,-2.1131,-2.1142,-2.1157,-2.1241,-2.1243,-2.1245,-2.1232,-2.1233,-2.1235,0,0,0,0,0,0,-2.0801,-2.0853,-2.0862,-2.0903,-2.0935,-2.098,-2.0998,-2.101,-2.1044,-2.1043,-2.1073,-2.1083,-2.1122,-2.1144,-2.113,-2.1195,-2.1193,-2.1197,-2.1179,-2.1181,-2.1182,-2.1175,-2.114,0,0,0,0,0,-2.0801,-2.0833,-2.0876,-2.0908,-2.0924,-2.0959,-2.0979,-2.0995,-2.103,-2.1043,-2.1073,-2.1106,-2.114,-2.1162,-2.1196,-2.1237,-2.1247,-2.1253,-2.1254,-2.1254,-2.1257,-2.1281,-2.1284,-2.1251,-2.1251,-2.1251,0,0,-2.0802,-2.0835,-2.0852,-2.0905,-2.0932,-2.0964,-2.097,-2.1003,-2.1027,-2.1048,-2.1089,-2.1112,-2.1152,-2.1193,-2.1213,-2.1212,-2.1269,-2.1257,-2.1257,-2.1259,-2.1283,-2.1286,-2.1289,-2.1253,-2.1252,-2.1252,0,0,-2.082,-2.0848,-2.0878,-2.0905,-2.0945,-2.0968,-2.0976,-2.102,-2.1036,-2.1078,-2.1095,-2.1124,-2.1182,-2.1209,-2.1231,-2.1261,-2.1272,-2.1271,-2.1276,-2.1299,-2.1302,-2.1304,-2.1315,-2.1318,-2.1274,-2.1274,-2.1274,0,-2.0816,-2.0864,-2.0891,-2.0924,-2.0947,-2.0969,-2.0999,-2.1024,-2.1074,-2.1089,-2.1089,-2.1163,-2.1191,-2.1239,-2.1246,-2.1263,-2.1273,-2.1265,-2.1299,-2.1302,-2.1304,-2.1315,-2.1319,-2.1274,-2.1274,-2.1274,-2.1274,0,-2.0857,-2.0891,-2.091,-2.0958,-2.0983,-2.1014,-2.1047,-2.1069,-2.1084,-2.1108,-2.115,-2.1185,-2.1226,-2.1239,-2.1254,-2.129,-2.1289,-2.1293,-2.1291,-2.1307,-2.1317,-2.1321,-2.1273,-2.1273,-2.1274,-2.1274,0,0,-2.0863,-2.0926,-2.0933,-2.0955,-2.1002,-2.1029,-2.1062,-2.1103,-2.1121,-2.1156,-2.1184,-2.1234,-2.1239,-2.1263,-2.1281,-2.1301,-2.1323,-2.1304,-2.1305,-2.1306,-2.1365,-2.136,-2.1364,-2.1331,-2.1332,-2.1333,-2.1361,0,-2.0886,-2.0945,-2.0971,-2.1019,-2.105,-2.1072,-2.1101,-2.1134,-2.1157,-2.1188,-2.1214,-2.1248,-2.1252,-2.1267,-2.1288,-2.1316,-2.1335,-2.1314,-2.1358,-2.1359,-2.1346,-2.137,-2.1365,-2.139,-2.1366,-2.1366,-2.1367,0,-2.092,-2.0955,-2.1005,-2.105,-2.1064,-2.109,-2.1129,-2.1158,-2.1196,-2.1212,-2.124,-2.1258,-2.1294,-2.1291,-2.1341,-2.1326,-2.1346,-2.1362,-2.1364,-2.1368,-2.1363,-2.1373,-2.1399,-2.1402,-2.1374,-2.1373,-2.1373,0,-2.0919,-2.0978,-2.1016,-2.1034,-2.1087,-2.1105,-2.1128,-2.1165,-2.1188,-2.1224,-2.1239,-2.1278,-2.1299,-2.1329,-2.1357,-2.1352,-2.1405,-2.1404,-2.1419,-2.1418,-2.1428,-2.1426,-2.1455,-2.1442,-2.1442,-2.1442,-2.1442,0,-2.0941,-2.0971,-2.1016,-2.1039,-2.1074,-2.1104,-2.1138,-2.1163,-2.1196,-2.1225,-2.1247,-2.1274,-2.131,-2.1341,-2.1364,-2.1402,-2.1412,-2.1425,-2.1431,-2.1423,-2.1421,-2.1435,-2.1433,-2.1443,-2.1443,-2.1442,-2.1442,0,-2.0944,-2.0975,-2.1018,-2.1065,-2.1078,-2.1102,-2.1142,-2.1166,-2.1191,-2.1227,-2.1238,-2.1277,-2.1315,-2.1347,-2.1397,-2.1412,-2.1452,-2.1459,-2.1439,-2.1442,-2.1455,-2.1453,-2.1493,-2.15,-2.1482,-2.1483,-2.1483,0,-2.0956,-2.0979,-2.1029,-2.105,-2.1073,-2.1106,-2.113,-2.1162,-2.1186,-2.1232,-2.125,-2.129,-2.1324,-2.1384,-2.1417,-2.1456,-2.1464,-2.1475,-2.1469,-2.1461,-2.1463,-2.1461,-2.1463,-2.1475,-2.1475,-2.1475,-2.1475,0,-2.0973,-2.0988,-2.1021,-2.1061,-2.1089,-2.1121,-2.1154,-2.117,-2.1208,-2.1234,-2.1274,-2.13,-2.1352,-2.1391,-2.1434,-2.1458,-2.1473,-2.1477,-2.1482,-2.1474,-2.1461,-2.1468,-2.1439,-2.1475,-2.1475,-2.1475,-2.1475,-2.1475,-2.0981,-2.1003,-2.1042,-2.1078,-2.1107,-2.1138,-2.1162,-2.1191,-2.1224,-2.1269,-2.1286,-2.1326,-2.1365,-2.1424,-2.1449,-2.1481,-2.1483,-2.1491,-2.1492,-2.1494,-2.1492,-2.1457,-2.1489,-2.1489,-2.1489,-2.1489,-2.1489,0,-2.0999,-2.1025,-2.1059,-2.1104,-2.1134,-2.1146,-2.1183,-2.1207,-2.1242,-2.1277,-2.131,-2.1356,-2.1395,-2.1432,-2.1473,-2.1492,-2.1499,-2.1501,-2.1499,-2.1505,-2.1489,-2.148,-2.1494,-2.1494,-2.1494,-2.1494,-2.1494,-2.1494,-2.1011,-2.105,-2.1069,-2.1122,-2.1149,-2.1188,-2.1209,-2.1237,-2.1265,-2.1315,-2.1348,-2.1372,-2.1408,-2.1452,-2.1488,-2.1498,-2.1512,-2.1511,-2.1523,-2.1507,-2.1506,-2.1505,-2.1497,-2.1514,-2.1514,-2.1536,-2.1537,-2.1537]},{"header":{"parameterUnit":"m.s-1","parameterCategory":1,"la1":30.2991,"la2":30.254,"lo1":-89.0895,"lo2":-89.0444,"dy":0.0017,"dx":0.0017,"nx":28,"ny":28,"refTime":"2024-05-01T09:00:00:Z","depth":0,"parameterNumber":3,"parameterNumberName":"V-component_of_WINDS"},"data":[0,0,0,0,0,0,0,0,0,0,0,0,0,0,0,0,0,0,0,0,0,0,0,0,0,0,0,0,0,0,0,0,0,0,0,0,0,0,0,0,0,0,0,0,0,0,0,0,0,0,0,0,0,0,0,0,0,0,4.3992,4.3993,0,4.401,4.401,4.401,4.3941,4.3939,4.3937,4.3935,4.395,4.3952,4.3954,0,0,0,0,0,0,0,0,0,0,0,0,0,4.3897,4.3899,4.3992,4.3993,4.3993,4.401,4.401,4.401,4.3941,4.3939,4.3936,4.3934,4.3949,4.3952,4.3955,0,0,0,0,0,0,0,0,0,0,0,0,0,4.3929,4.39,4.3992,4.3961,4.3958,4.401,4.401,4.401,4.3942,4.3939,4.3936,4.3933,4.3948,4.3952,4.3955,4.4037,0,0,4.3965,4.3967,0,0,0,0,0,0,0,0,4.3927,4.3933,4.3965,4.3963,4.396,4.397,4.3982,4.4019,4.3943,4.3948,4.3935,4.3932,4.3959,4.3961,4.3971,4.4038,4.4038,4.3966,4.3968,4.3969,4.397,0,0,0,0,0,0,0,4.3925,4.3931,4.3999,4.3966,4.3963,4.3945,4.3946,4.3988,4.397,4.3947,4.3942,4.3945,4.3957,4.3968,4.3971,4.4038,4.3966,4.3969,4.3971,4.3972,4.4173,4.4176,0,0,0,0,0,0,4.3928,4.393,4.3999,4.4,4.3936,4.3949,4.395,4.397,4.397,4.3967,4.3948,4.3942,4.3964,4.3967,4.3971,4.4067,4.3969,4.3972,4.3974,4.4169,4.4173,4.4177,0,0,0,0,0,0,4.3926,4.3934,4.3998,4.3964,4.397,4.3954,4.3977,4.3972,4.3983,4.397,4.3966,4.3963,4.3961,4.3966,4.4021,4.4066,4.3974,4.3977,4.4165,4.4171,4.4175,4.4259,0,0,0,0,0,0,4.3923,4.3934,4.3966,4.3965,4.3972,4.4049,4.3979,4.3974,4.3989,4.3982,4.3983,4.398,4.3959,4.4016,4.4025,4.4069,4.398,4.4161,4.4168,4.4174,4.4252,4.4266,4.4278,0,0,0,0,0,4.392,4.3988,4.3968,4.3976,4.4012,4.4051,4.4056,4.4031,4.3993,4.4024,4.4016,4.398,4.406,4.4023,4.4031,4.4078,4.4158,4.4166,4.4173,4.4246,4.4264,4.4278,0,0,0,0,0,0,4.3994,4.3987,4.3965,4.4035,4.4044,4.404,4.4078,4.405,4.407,4.4062,4.4029,4.403,4.4091,4.4089,4.4048,4.4157,4.4103,4.4112,4.4155,4.4172,4.4185,4.4183,4.3983,0,0,0,0,0,4.4018,4.4052,4.4044,4.4107,4.4113,4.4095,4.4111,4.4092,4.41,4.4103,4.4099,4.4108,4.4135,4.4153,4.4177,4.4252,4.4251,4.4288,4.4301,4.4312,4.432,4.436,4.4376,4.4201,4.4201,4.4201,0,0,4.4069,4.407,4.4093,4.4122,4.4127,4.4162,4.4099,4.4138,4.4163,4.4109,4.4161,4.4158,4.4165,4.4231,4.4259,4.4232,4.4369,4.4321,4.433,4.4333,4.4369,4.4385,4.44,4.4206,4.4205,4.4204,0,0,4.4179,4.4184,4.4236,4.4243,4.4252,4.4239,4.4252,4.4252,4.4249,4.43,4.426,4.4289,4.4336,4.4343,4.4353,4.4466,4.4434,4.4475,4.4543,4.4582,4.4595,4.4607,4.4648,4.4663,4.4483,4.4484,4.4484,0,4.4241,4.4293,4.4266,4.4309,4.4322,4.4276,4.4328,4.4335,4.4351,4.4361,4.433,4.4389,4.4391,4.4457,4.4485,4.4494,4.4507,4.4475,4.4596,4.4608,4.4618,4.4656,4.4672,4.4489,4.4488,4.4488,4.4487,0,4.4368,4.4405,4.4446,4.4464,4.4482,4.4529,4.4509,4.453,4.4509,4.45,4.4553,4.4553,4.4576,4.4591,4.457,4.4654,4.4637,4.4602,4.4546,4.4641,4.4676,4.469,4.4496,4.4494,4.4492,4.4491,0,0,4.4525,4.4528,4.4544,4.4551,4.4558,4.4585,4.463,4.4653,4.4672,4.4685,4.4721,4.4762,4.473,4.4741,4.4721,4.4755,4.4844,4.4715,4.4715,4.4739,4.4937,4.4963,4.498,4.4823,4.4826,4.4828,4.4936,0,4.4633,4.4711,4.4688,4.4766,4.4799,4.4755,4.4794,4.4802,4.4794,4.4821,4.4812,4.4842,4.4797,4.4803,4.4835,4.4827,4.4883,4.4819,4.4856,4.4857,4.4855,4.4999,4.5027,4.5129,4.495,4.4952,4.4953,0,4.477,4.4789,4.487,4.4871,4.4884,4.492,4.494,4.4966,4.4973,4.4966,4.4979,4.4951,4.4994,4.4939,4.4998,4.4954,4.4968,4.4967,4.497,4.4972,4.4911,4.5005,4.5161,4.5176,4.4975,4.4973,4.4972,0,4.4876,4.4922,4.4977,4.4984,4.4987,4.5013,4.5015,4.502,4.5036,4.5053,4.5062,4.5084,4.5096,4.5113,4.5092,4.5054,4.5154,4.5097,4.5148,4.5149,4.5171,4.517,4.5332,4.5181,4.518,4.518,4.518,0,4.4999,4.5051,4.5024,4.5058,4.5114,4.5087,4.5143,4.514,4.5145,4.5176,4.5139,4.5169,4.514,4.5167,4.5151,4.5202,4.5207,4.5202,4.5197,4.5205,4.5206,4.5214,4.5206,4.5184,4.5183,4.5182,4.5182,0,4.5127,4.5112,4.5169,4.5167,4.5167,4.5209,4.5207,4.5237,4.5227,4.5268,4.5275,4.526,4.529,4.5271,4.5301,4.529,4.5357,4.5342,4.5355,4.5351,4.5403,4.5398,4.5575,4.5596,4.5432,4.5433,4.5435,0,4.5207,4.5246,4.5248,4.5267,4.5272,4.5303,4.5319,4.5294,4.5312,4.5324,4.5353,4.538,4.5401,4.5451,4.5442,4.5465,4.545,4.551,4.5453,4.546,4.5451,4.5449,4.5452,4.5522,4.5524,4.5525,4.5527,0,4.535,4.5341,4.5366,4.5389,4.5409,4.5426,4.5439,4.5457,4.5431,4.5453,4.5484,4.5501,4.5532,4.5559,4.5579,4.5579,4.5549,4.5545,4.5558,4.5567,4.5573,4.557,4.5386,4.5541,4.5539,4.5538,4.5538,4.5537,4.5456,4.5489,4.5496,4.5525,4.5532,4.5546,4.5575,4.5569,4.5594,4.5618,4.5602,4.5638,4.5644,4.5667,4.5672,4.57,4.5676,4.5694,4.5699,4.5704,4.5711,4.5568,4.5704,4.5703,4.5703,4.5702,4.5702,0,4.5597,4.56,4.5627,4.5647,4.567,4.564,4.5654,4.5675,4.5708,4.5716,4.5738,4.5773,4.5799,4.5793,4.5816,4.584,4.5826,4.5847,4.5845,4.5845,4.5732,4.5719,4.5857,4.5857,4.5857,4.5857,4.5857,4.5857,4.5673,4.5727,4.5718,4.5774,4.5776,4.5812,4.5822,4.5834,4.5841,4.5883,4.5905,4.59,4.5903,4.5926,4.5949,4.5946,4.5956,4.5982,4.5974,4.5869,4.5853,4.5839,4.5826,4.5984,4.5985,4.6085,4.6086,4.6086]}]]